Location: Observatory
(49.4490°N, 2.6360°W)
Time: 13:32:18
(UTC+01:00)

CAS-4A - Pass Details

Date: 07 May 2025
Orbit: 371 x 397 km, 43.0° (Epoch: 15 May)

Event Time Altitude Azimuth Distance (km) Brightness Sun altitude
Exits shadow 04:34:24 14° 216° (SW) 1,176 ? -9.4°
Maximum altitude 04:35:07 15° 200° (SSW) 1,136 ? -9.4°
Drops below altitude 10° 04:36:57 10° 164° (SSE) 1,379 ? -9.1°
Sets 04:39:38 0° 139° (SE) 2,234 ? -8.8°
